Weather History for Phuket, Thailand

Change the Weather History Date:

Monday, December 12, 2011

  Actual Average Record
Temperature  
Mean Temperature 82 °F -  
Max Temperature 88 °F 88 °F 95 °F (2002)
Min Temperature 76 °F 74 °F 69 °F (1999)
Cooling Degree Days 17    
Growing Degree Days 32 (Base 50)    
Moisture  
Dew Point 69 °F    
Average Humidity 67    
Maximum Humidity 78    
Minimum Humidity 52    
Precipitation  
Precipitation 0.00 in 0.08 in - ()
Sea Level Pressure  
Sea Level Pressure 29.83 in    
Wind  
Wind Speed 8 mph ()    
Max Wind Speed 17 mph    
Max Gust Speed 22 mph    
Visibility 5.6 miles    
Events      
Averages and records for this station are not official NWS values.
T = Trace of Precipitation, MM = Missing Value Source: Averaged Metar Reports

Daily Weather History Graph

Daily Weather History Graph

Search for Another Location

Airport:

Trip Planner

Search our weather history database for the weather conditions in past years. The results will help you decide how hot, cold, wet, or windy it might be!

Date:

Astronomy

Dec. 12, 2011 Rise Set
Actual Time 6:30 AM ICT 6:10 PM ICT
Civil Twilight 6:07 AM ICT 6:32 PM ICT
Nautical Twilight 5:41 AM ICT 6:58 PM ICT
Astronomical Twilight 5:15 AM ICT 7:25 PM ICT
Moon 7:43 PM ICT (12/12) 7:42 AM ICT (12/12)
Length of Visible Light 12h 25m
Length of Day
11h 39m
Full, 97% of the Moon is Illuminated
Dec 12
Full
Dec 18
Last Quarter
Dec 25
New
Jan 1
First Quarter
Jan 9
Full

Hourly Weather History & Observations

Time (ICT) Temp. Heat Index Dew Point Humidity Pressure Visibility Wind Dir Wind Speed Gust Speed Precip Events Conditions
12:00 AM 78.8 °F - 71.6 °F 78% 29.89 in 4.3 mi ENE 5.8 mph - N/A   Mostly Cloudy
12:30 AM 78.8 °F - 69.8 °F 74% 29.89 in 4.3 mi ENE 6.9 mph - N/A   Mostly Cloudy
1:00 AM 78 °F - 72 °F 77% 29.86 in 5 mi East 8.1 mph - -   Mist
1:00 AM 78.8 °F - 69.8 °F 74% 29.86 in 4.3 mi ENE 8.1 mph - N/A   Mostly Cloudy
1:30 AM 78.8 °F - 69.8 °F 74% 29.86 in 4.3 mi ENE 6.9 mph - N/A   Mostly Cloudy
2:00 AM 78.8 °F - 69.8 °F 74% 29.86 in 4.3 mi ENE 6.9 mph - N/A   Mostly Cloudy
2:30 AM 77.0 °F - 69.8 °F 78% 29.83 in 4.3 mi ENE 5.8 mph - N/A   Mostly Cloudy
3:00 AM 77.0 °F - 69.8 °F 78% 29.83 in 4.3 mi ENE 4.6 mph - N/A   Mostly Cloudy
3:30 AM 77.0 °F - 69.8 °F 78% 29.77 in 4.3 mi Variable 2.3 mph - N/A   Mostly Cloudy
4:00 AM 77.0 °F - 69.8 °F 78% 29.80 in 4.3 mi ENE 6.9 mph - N/A   Mostly Cloudy
4:30 AM 77.0 °F - 69.8 °F 78% 29.80 in 4.3 mi ENE 9.2 mph - N/A   Mostly Cloudy
5:00 AM 77.0 °F - 68.0 °F 74% 29.80 in 4.3 mi ENE 6.9 mph - N/A   Mostly Cloudy
5:30 AM 77.0 °F - 69.8 °F 78% 29.80 in 4.3 mi ENE 6.9 mph - N/A   Mostly Cloudy
6:00 AM 77.0 °F - 68.0 °F 74% 29.80 in 4.3 mi ENE 9.2 mph - N/A   Mostly Cloudy
6:30 AM 77.0 °F - 68.0 °F 74% 29.83 in 5.6 mi ENE 8.1 mph - N/A   Mostly Cloudy
7:00 AM 78 °F - 70 °F 71% 29.82 in 6 mi East 9.2 mph - -   Scattered Clouds
7:00 AM 77.0 °F - 68.0 °F 74% 29.83 in 5.6 mi ENE 6.9 mph - N/A   Mostly Cloudy
7:30 AM 78.8 °F - 68.0 °F 69% 29.86 in 5.6 mi ENE 5.8 mph - N/A   Mostly Cloudy
8:00 AM 78.8 °F - 68.0 °F 69% 29.86 in 5.6 mi ENE 8.1 mph - N/A   Mostly Cloudy
8:30 AM 78.8 °F - 69.8 °F 74% 29.89 in 6.2 mi ENE 8.1 mph - N/A   Mostly Cloudy
9:00 AM 80.6 °F 83.9 °F 69.8 °F 70% 29.89 in 6.2 mi ENE 9.2 mph - N/A   Mostly Cloudy
9:30 AM 80.6 °F 83.9 °F 69.8 °F 70% 29.89 in 6.2 mi ENE 15.0 mph - N/A   Mostly Cloudy
10:00 AM 82.4 °F 87.2 °F 71.6 °F 70% 29.89 in 6.2 mi ENE 13.8 mph - N/A   Mostly Cloudy
10:30 AM 84.2 °F 88.4 °F 69.8 °F 62% 29.89 in 6.2 mi ENE 17.3 mph - N/A   Mostly Cloudy
11:00 AM 84.2 °F 88.4 °F 69.8 °F 62% 29.86 in 6.2 mi ENE 15.0 mph - N/A   Mostly Cloudy
11:30 AM 86.0 °F 90.4 °F 69.8 °F 58% 20.11 in 6.2 mi East 16.1 mph - N/A   Mostly Cloudy
12:00 PM 86.0 °F 90.4 °F 69.8 °F 58% 29.86 in 6.2 mi East 15.0 mph - N/A   Mostly Cloudy
12:30 PM 86.0 °F 91.8 °F 71.6 °F 62% 29.83 in 6.2 mi ENE 13.8 mph - N/A   Mostly Cloudy
1:00 PM 86 °F - 71 °F 52% 29.83 in 6 mi ENE 9.2 mph - -   Scattered Clouds
1:00 PM 86.0 °F 90.4 °F 69.8 °F 58% 29.83 in 6.2 mi ENE 11.5 mph - N/A   Mostly Cloudy
1:30 PM 86.0 °F 90.4 °F 69.8 °F 58% 29.80 in 6.2 mi ENE 13.8 mph - N/A   Mostly Cloudy
2:00 PM 86.0 °F 90.4 °F 69.8 °F 58% 29.80 in 6.2 mi ENE 12.7 mph - N/A   Mostly Cloudy
2:30 PM 87.8 °F 92.6 °F 69.8 °F 55% 29.77 in 6.2 mi ENE 13.8 mph - N/A   Mostly Cloudy
3:00 PM 87.8 °F 92.6 °F 69.8 °F 55% 29.74 in 6.2 mi ENE 11.5 mph - N/A   Mostly Cloudy
3:30 PM 87.8 °F 92.6 °F 69.8 °F 55% 29.74 in 6.2 mi ENE 13.8 mph - N/A   Scattered Clouds
4:00 PM 87.8 °F 92.6 °F 69.8 °F 55% 29.74 in 6.2 mi ENE 13.8 mph - N/A   Scattered Clouds
4:30 PM 86.0 °F 90.4 °F 69.8 °F 58% 29.74 in 6.2 mi ENE 11.5 mph - N/A   Scattered Clouds
5:00 PM 86.0 °F 89.4 °F 68.0 °F 55% 29.77 in 6.2 mi ENE 11.5 mph - N/A   Scattered Clouds
5:30 PM 84.2 °F 87.3 °F 68.0 °F 58% 29.77 in 6.2 mi ENE 8.1 mph - N/A   Mostly Cloudy
6:00 PM 82.4 °F 86.3 °F 69.8 °F 66% 29.80 in 6.2 mi East 6.9 mph - N/A   Mostly Cloudy
6:30 PM 82.4 °F 86.3 °F 69.8 °F 66% 29.80 in 6.2 mi ENE 9.2 mph - N/A   Mostly Cloudy
7:00 PM 82 °F - 70 °F 60% 29.78 in 6 mi ENE 5.8 mph - -   Scattered Clouds
7:00 PM 80.6 °F 83.2 °F 68.0 °F 65% 29.83 in 6.2 mi ENE 6.9 mph - N/A   Mostly Cloudy
7:30 PM 80.6 °F 83.9 °F 69.8 °F 70% 29.83 in 6.2 mi ENE 8.1 mph - N/A   Mostly Cloudy
8:00 PM 80.6 °F 83.2 °F 68.0 °F 65% 29.83 in 6.2 mi ENE 12.7 mph - N/A   Mostly Cloudy
8:30 PM 80.6 °F 83.2 °F 68.0 °F 65% 29.83 in 6.2 mi ENE 9.2 mph - N/A   Mostly Cloudy
9:00 PM 78.8 °F - 68.0 °F 69% 29.86 in 5.6 mi ENE 9.2 mph - N/A   Mostly Cloudy
9:30 PM 78.8 °F - 68.0 °F 69% 29.86 in 5.6 mi ENE 12.7 mph - N/A   Mostly Cloudy
10:00 PM 78.8 °F - 68.0 °F 69% 29.89 in 5.6 mi ENE 10.4 mph - N/A   Mostly Cloudy
10:30 PM 78.8 °F - 68.0 °F 69% 29.89 in 5.6 mi East 10.4 mph - N/A   Mostly Cloudy
11:00 PM 78.8 °F - 68.0 °F 69% 29.89 in 5.6 mi ENE 11.5 mph - N/A   Mostly Cloudy
11:30 PM 78.8 °F - 68.0 °F 69% 29.89 in 5.6 mi ENE 10.4 mph 21.9 mph N/A   Mostly Cloudy